User: anonymous   Login
Location: Unspecified
(0.0000°N, 0.0000°E)
Time: 10:17:57
(UTC+00:00)
Language:

NANOSAT-1 - Orbit

View from above orbital plane
View from above orbital plane
View from above satellite
View from above satellite

Ground track
Ground track

The orbit data is extracted from the following two-line orbital elements,

1 28493U 04049B   17294.76126587 +.00000126 +00000-0 +27516-4 0  9992
2 28493 098.1910 005.5665 0003729 333.8787 026.2232 14.73358682689550
Epoch (UTC): 21 October 2017 18:16:13
Eccentricity: 0.0003729
inclination: 98.1910°
perigee height: 648 km
apogee height: 653 km
right ascension of ascending node: 5.5665°
argument of perigee: 333.8787°
revolutions per day: 14.73358682
mean anomaly at epoch: 26.2232°
orbit number at epoch: 68955

The dashed part of the orbit path shows where the satellite is in the earth's shadow,  

DLR